Погода в Оренбурге

Погода в Оренбурге : погода сейчас, прогноз погоды и архив. Всё, что Вы хотите узнать о погоде в Оренбурге!

Хотите узнать прогноз погоды в Оренбурге? Тогда Вам сюда: Погода в Оренбурге

Поиск расширенной информации на нашем сайте:

Другие новости

Новости СМИ2

Главная страница сайта

Новости сайта

03.07.2017

Напоминаем, что на нашем специализированном сайте Метеоцентр.Азия вы можете получить высокодетализированные автоматические прогнозы погоды по пунктам России, СНГ и мира в авиационном формате (включающие направление и скорость ветра, видимость, явления погоды, количество и форму облачности, нижнюю и верхнюю границу облачности).


Погода в Оренбурге - сегодня

Время (UTC), дата Ветер
(°,м/с) 
Видим.   Явления Облачность Т
(°С)
Тd
(°С)
f(%) Тe
(°С)
Pmin
(гПа)
dP
(гПа)
Po
(мм)
O2
(г/м3)
Тmin Tmax R s Состояние
почвы
00 18.11.17 250 (З) 20000 м    10/4 1000 м средняя 
[Sc|Ac trans]
-0.6 -1.5 94 -2  1025.8  1.6  758  306           
03 18.11.17 250 (З) 20000 м    10/10 1320 м 
[Sc]
-0.4 -1.5 92 -2  1026.7  759  306  -1.1    0.0     
06 18.11.17 240 (ЮЗ) 20000 м    10/10 1140 м 
[Sc]
+0.2 -1.1 91 -2  1028  1.3  760  306           
09 18.11.17 250 (З) 20000 м    10/10 930 м 
[Sc]
+2.1 -2.5 72 -1  1028.5  0.5  760  304           
12 18.11.17 250 (З) 20000 м    10/10 720 м 
[Sc]
+1.4 -1.9 79 -1  1028.9  0.4  761  305           
15 18.11.17 210 (ЮЗ) 20000 м    9/9 870 м 
[Sc]
+0.7 -1.5 85 1029.1  0.3  761  306    +2.1       
18 18.11.17 240 (ЮЗ) 20000 м    9/9 800 м 
[Sc]
+1.5 -1.7 79 -1  1029.6  0.6  761  305           
21 18.11.17 240 (ЮЗ) 20000 м    10/10 700 м 
[Sc]
+1 -0.7 88 -1  1030.5  0.9  762  306           
00 19.11.17 220 (ЮЗ) 20000 м    9/9 700 м 
[Sc]
+0.8 -0.8 89 1031  0.5  762  306           
03 19.11.17 170 (Ю) 20000 м    10/10 800 м 
[Sc]
+0.7 -0.7 90 1031.2  0.1  762  306  +0.7         
06 19.11.17 180 (Ю) 20000 м    10/10 900 м 
[Sc]
+1.4 -0.2 89 1032.1  0.9  763  306  +0.6         
09 19.11.17 180 (Ю) 20000 м    6/3 1000 м средняя, верхняя 
[Sc|Ac trans|Ci fib]
+3.5 -2.1 67 +2  1030.8  -1.1  762  303           
12 19.11.17 150 (ЮВ) 20000 м    8/0 средняя, верхняя 
[Ac trans|Ci fib]
+2.5 -2.5 70 +1  1029.9  -0.9  761  304           
15 19.11.17 120 (ЮВ) 20000 м    8/0 средняя 
[Ac trans]
+1.1 -1.6 82 1029.1  -0.9  761  305    +3.9       
18 19.11.17 130 (ЮВ) 20000 м    8/0 средняя 
[Ac trans]
+0.7 -1.3 86 -1  1028.4  -0.7  760  306           
21 19.11.17 130 (ЮВ) 20000 м    8/0 средняя 
[Ac trans]
-0.6 -2.2 89 -3  1028.3  -0.2  760  307           
00 20.11.17 110 (В) 20000 м    9/0 средняя 
[Ac trans]
-0.3 -1.8 90 -2  1027.5  -0.8  759  307           
03 20.11.17 120 (ЮВ) 20000 м    10/0 средняя 
[Ac und]
+1.2 -1.3 83 1027  -0.3  759  305  -0.8         
06 20.11.17 160 (Ю) 20000 м    9/9 1000 м 
[Sc]
+1.8 -1.5 79 +1  1027.1  0.2  759  304           
09 20.11.17 130 (ЮВ) 20000 м    8/0 средняя, верхняя 
[Ac trans|Ci fib]
+5.1 -1.4 63 +4  1025.7  -1.3  758  300           
12 20.11.17 110 (В) 20000 м    5/0 средняя, верхняя 
[Ac lent|Ci fib]
+5.3 -2.2 58 +4  1024.9  -0.7  758  300           
15 20.11.17 100 (В) 20000 м    ясно 
+0.4 -2.5 81 -1  1025.2  758  305    +6.3       
18 20.11.17 080 (В) 20000 м    ясно 
-0.9 -4.1 79 -3  1024.6  -0.7  757  307           
21 20.11.17 080 (В) 20000 м    4/0 верхняя 
[Ci fib]
-0.8 -4.4 77 -3  1023.1  -1.4  756  306           
00 21.11.17 090 (В) 20000 м    8/0 верхняя 
[Ci fib]
-0.6 -3.9 78 -3  1022.2  -0.9  755  306           
Время (UTC), дата Ветер
(°,м/с) 
Видим.   Явления Облачность Т
(°С)
Тd
(°С)
f(%) Тe
(°С)
Pmin
(гПа)
dP
(гПа)
Po
(мм)
O2
(г/м3)
Тmin Tmax R s Состояние
почвы

Для получения пояснительной информации подведите курсор к названию столбца.

ПОГОДА в Оренбурге - архив

Всё, что Вы хотите узнать о погоде в Оренбурге - удобно и подробно!

Выберите нужную дату (начиная с 1 января 2015* года) и нажмите кнопку "Найти".
Будут отображены архивные сводки погоды по пункту Оренбург, начиная с указанной даты.


Отображать данные в формате CSV (для использования в таблицах Excel)


Внимание! Наш архив погоды предназначен исключительно для личного некоммерческого использования в познавательных целях. Если Вам необходимы официальные справки о состоянии погоды (для производственных, юридических, коммерческих и т.п. целей), обращайтесь в органы Росгидромета.

*Примечание: данная дата относится к архиву по метеостанциям СССР (Россия, СНГ, Балтия).
Архив по метеостанциям Зарубежной Европы и Азии (кроме Китая) хранится 10 дней, по другим регионам земного шара (Китай, Африка, Америка, Австралия, Океания) - 1 день.

Оренбург - район местоположения метеостанции


Название, широта, долгота, высота метеостанции:
Оренбург (город) 51.7°ш. 55.1°д. 117 м над ур. моря [Российская Федерация]

Дополнительная информация

В oтличие oт бoльшинства пoгoдных сайтoв мы публикуем пoдрoбную метеoинфoрмацию в детальнoм прoфессиoнальнoм фoрмате.

Характеристики температуры и влажнoсти вoздуха измеряются на высoте 2 м в тени вдали oт зданий и деревьев.
Скoрoсть ветра измеряется на высoте 10 м (на урoвне рoста челoвека скoрoсть ветра ниже в 1.5-2 раза). Если метеoстанция нахoдится в гoрoде или в лесу, тo скoрoсть ветра занижена на 2-4 м/с пo сравнению с oткрытым местoм. Скoрoсть ветра над акватoриями крупных рек и oзёр, а также на вершинах хoлмoв на 2-5 м/с выше, чем в oбычных услoвиях.
Атмoсфернoе давление в разных тoчках местнoсти мoжет значительнo oтличаться oт давления на метеoстанции, в зависимoсти oт услoвий рельефа (при пoдъёме на 10 м давление пoнижается примернo на 1 мм рт.ст.).